User: anonymous   Login
Location: Caltech
(34.1382°N, 118.1253°W)
Time: 05:25:45
(UTC-08:00)
Language:

CZ-4B DEB - Orbit

View from above orbital plane
View from above orbital plane
View from above satellite
View from above satellite

Ground track
Ground track

The orbit data is extracted from the following two-line orbital elements,

1 27433U 02024D   17052.84912267  .00000125  00000-0  92704-4 0  9995
2 27433  98.9547  26.0113 0015170  20.0445 340.1319 14.12147964760895
Epoch (UTC): 21 February 2017 20:22:44
Eccentricity: 0.0015170
inclination: 98.9547°
perigee height: 841 km
apogee height: 863 km
right ascension of ascending node: 26.0113°
argument of perigee: 20.0445°
revolutions per day: 14.12147964
mean anomaly at epoch: 340.1319°
orbit number at epoch: 76089

The dashed part of the orbit path shows where the satellite is in the earth's shadow,  

DLR